Weather observations for the past three days for
Monterey Regional Airport
Imperial (Metric)
Date Time (pdt) Wind (mph) Vis. (mi.) Weather Sky Cond. Temperature (ºF) Relative Humidity Wind Chill (°F) Heat Index (°F) Pressure Precipitation (in)
Air Dwpt 6 hour altimeter (in) sea level (mb) 1 hr 3 hr 6 hr
Max. Min.
20 17:54 W 13 10.00 Overcast OVC009 60.1 54 80% 30 1017.0
20 16:54 W 14 10.00 Mostly Cloudy BKN009 61 54 64 60.1 78% 30 1017.1
20 15:54 W 12 10.00 Overcast OVC009 61 54 78% 30.01 1017.4
20 14:54 W 12 10.00 Mostly Cloudy BKN009 61 54 78% 30.02 1017.6
20 13:54 W 14 10.00 Mostly Cloudy BKN009 62.1 54 75% 30.02 1017.8
20 12:54 W 10 10.00 Mostly Cloudy BKN009 62.1 54 75% 30.02 1017.8
20 11:54 W 10 7.00 Mostly Cloudy BKN009 62.1 54 75% 30.02 1017.7
20 10:54 W 12 7.00 Mostly Cloudy BKN007 60.1 54 61 55.9 80% 30.01 1017.5
20 09:54 W 3 10.00 Overcast OVC007 60.1 55 84% 30.01 1017.3
20 08:54 W 8 7.00 Overcast OVC005 57.9 54 87% 30 1017.1
20 07:54 W 9 5.00 Fog/Mist OVC004 57.9 55 90% 29.99 1016.7
20 06:54 W 8 7.00 Overcast OVC004 57 55 93% 29.98 1016.3
20 05:54 W 7 5.00 Fog/Mist OVC004 57 55 93% 29.97 1015.8
20 04:54 SW 6 8.00 Overcast OVC003 55.9 55 60.1 55.9 97% 29.97 1015.9
20 03:54 W 8 5.00 Fog/Mist OVC003 55.9 54 93% 29.97 1015.8
20 02:54 SW 8 9.00 Overcast OVC003 55.9 54 93% 29.97 1015.9
20 01:54 W 7 10.00 Overcast OVC004 57 55 93% 29.98 1016.4
20 00:54 SW 9 10.00 A Few Clouds FEW006 57.9 54 87% 29.99 1016.6
19 23:54 SW 9 10.00 Fair CLR 59 54 83% 30 1017.0
19 22:54 SW 7 10.00 Fair CLR 60.1 54 73 60.1 80% 30.01 1017.3
19 21:54 W 9 10.00 Fair CLR 62.1 53.1 73% 30 1017.0
19 20:54 W 7 10.00 Fair CLR 63 53.1 70% 29.99 1016.6
19 19:54 NW 9 10.00 Fair CLR 66 52 61% 29.97 1016.1
19 18:54 NW 9 10.00 Fair CLR 69.1 52 55% 29.96 1015.5
19 17:54 NW 9 10.00 Fair CLR 70 52 53% 29.95 1015.1
19 16:54 NW 10 10.00 Fair CLR 73 52 73.9 60.1 48% 29.95 1015.3
19 15:54 NW 6 10.00 Fair CLR 70 54 57% 29.98 1016.2
19 14:54 NW 9 10.00 Fair CLR 68 55 63% 30 1016.8
19 13:54 N 7 10.00 Fair CLR 64.9 54 68% 30 1017.2
19 12:54 NW 8 10.00 Fair CLR 62.1 54 75% 30.01 1017.4
19 11:54 N 6 10.00 Fair CLR 61 54 78% 30.02 1017.6
19 10:54 N 5 10.00 A Few Clouds FEW004 61 54 61 54 78% 30.02 1017.6
19 09:54 N 5 10.00 Mostly Cloudy BKN004 59 53.1 81% 30.02 1017.9
19 08:54 Vrbl 3 10.00 Overcast OVC003 55.9 53.1 90% 30.03 1018.1
19 07:54 Calm 1.00 Fog/Mist OVC002 55 53.1 93% 30.03 1018.1
19 06:54 Calm 2.00 Fog/Mist OVC002 54 53.1 97% 30.02 1017.7
19 05:54 Calm 2.00 Fog/Mist OVC003 54 53.1 97% 30.01 1017.4
19 04:54 SW 6 10.00 Overcast OVC004 55 53.1 57 54 93% 30.01 1017.4
19 03:54 S 6 8.00 Overcast OVC002 55 54 96% 30.01 1017.5
19 02:54 W 8 10.00 Overcast OVC003 55 54 96% 30.02 1017.7
19 01:54 SW 6 10.00 Overcast OVC004 55.9 54 93% 30.03 1018.0
19 00:54 SW 6 10.00 Fair CLR 55.9 52 87% 30.04 1018.4
18 23:54 SW 5 10.00 Fair CLR 57 53.1 87% 30.04 1018.4
18 22:54 W 8 10.00 Fair CLR 55.9 53.1 62.1 55.9 90% 30.05 1018.9
18 21:54 W 5 10.00 Fair CLR 57 53.1 87% 30.05 1018.9
18 20:54 SW 6 10.00 Mostly Cloudy BKN007 57 53.1 87% 30.05 1018.7
18 19:54 W 9 10.00 Mostly Cloudy BKN007 57.9 53.1 84% 30.03 1018.1
18 18:54 W 12 10.00 Mostly Cloudy BKN007 59 54 83% 30.03 1018.0
18 17:54 NW 8 10.00 Partly Cloudy SCT007 61 54 78% 30.02 1017.7
18 16:54 NW 12 10.00 Partly Cloudy SCT008 61 54 63 57.9 78% 30.03 1017.9
18 15:54 NW 13 10.00 A Few Clouds FEW008 62.1 54 75% 30.03 1018.2
18 14:54 NW 9 10.00 A Few Clouds FEW008 62.1 54 75% 30.03 1018.2
18 13:54 NW 13 10.00 Partly Cloudy SCT008 60.1 54 80% 30.04 1018.4
18 12:54 NW 12 10.00 Partly Cloudy SCT007 61 54 78% 30.04 1018.5
18 11:54 NW 9 5.00 Overcast with Haze OVC005 60.1 54 80% 30.04 1018.5
18 10:54 N 6 1.50 Fog/Mist OVC002 57.9 54 57.9 54 87% 30.04 1018.5
18 09:54 NW 6 0.50 Fog OVC002 55.9 54 93% 30.04 1018.3
18 08:54 NW 3 0.50 Fog OVC001 55 55 100% 30.03 1018.0
18 07:54 NW 3 0.25 Fog VV001 55 54 96% 30.02 1017.7
18 06:54 Calm 0.50 Fog VV001 55 55 100% 30 1017.0
18 05:54 Calm 0.50 Fog OVC001 54 54 100% 30 1017.1
18 04:54 S 3 5.00 Fog/Mist OVC002 54 54 55.9 54 100% 30 1016.9
18 03:54 SW 5 1.75 Fog/Mist OVC001 55 54 96% 29.99 1016.6
18 02:54 W 5 2.50 Fog/Mist OVC001 55 54 96% 30 1017.0
18 01:51 W 6 3.00 Fog/Mist OVC002 55 54 96% 30.01 1017.4
18 00:54 NW 6 3.00 Fog/Mist OVC002 55 54 96% 30.01 1017.6
17 23:54 W 8 10.00 Overcast OVC003 55 53.1 93% 30.01 1017.6
17 22:54 SW 8 10.00 Overcast OVC004 55.9 54 64.9 55.9 93% 30.02 1017.7
17 21:54 W 8 10.00 Overcast OVC005 55.9 54 93% 30.02 1017.7
17 20:54 W 9 10.00 A Few Clouds FEW005 57 54 90% 30.01 1017.6
17 19:54 W 10 10.00 Partly Cloudy SCT009 59 54 83% 30.01 1017.3
17 18:54 W 10 10.00 A Few Clouds FEW007 63 54 73% 30 1017.1
Date Time (pdt) Wind (mph) Vis. (mi.) Weather Sky Cond. Air Dwpt Max. Min. Relative Humidity Wind Chill (°F) Heat Index (°F) altimeter (in) sea level (mb) 1 hr 3 hr 6 hr
6 hour
Temperature (ºF) Pressure Precipitation (in)